GEFSGL_500_meanwind_210.txt.gz
Wind_Speed
15 15 16 16 16 16 16 16 16 16 16 16 15 15 15 15 15 15 15 15 16 17 17 18 19 19 19 19 19 19 20 20 21 21 23 23 24 25 25 26 26 26 26
15 15 16 16 17 17 17 17 17 17 17 17 17 16 16 16 16 17 17 17 17 17 18 18 19 19 20 20 19 20 20 21 21 22 23 23 24 25 25 24 24 25 26
16 16 16 17 17 18 18 18 18 18 18 18 17 17 17 17 18 18 19 18 18 19 19 19 19 20 20 20 21 21 21 21 21 22 22 23 24 24 25 25 26 26 26
17 17 18 18 19 19 20 20 20 19 19 19 19 18 19 19 19 20 20 20 19 19 20 21 21 21 21 22 22 22 22 22 22 23 24 25 25 26 26 26 26 26 27
18 18 19 19 20 21 21 22 21 20 20 20 20 20 20 20 20 21 21 20 20 20 21 21 22 22 22 22 23 22 22 22 23 24 25 25 26 26 26 26 27 27 28
19 19 20 20 21 22 22 22 22 22 21 22 21 21 21 22 22 21 21 20 21 21 22 22 23 23 23 22 22 23 23 23 24 24 24 25 26 26 27 27 28 28 27
21 21 20 20 21 22 22 22 23 23 23 23 23 23 23 23 23 23 23 22 22 23 23 23 23 23 22 22 22 23 23 22 22 22 23 24 25 26 27 27 28 28 28
22 23 23 22 22 22 23 23 24 24 24 24 24 24 23 23 24 24 23 23 23 23 24 23 23 24 24 23 23 22 22 23 23 24 24 25 26 26 26 27 27 28 28
23 23 23 23 23 23 24 24 24 25 25 25 25 24 24 23 24 24 23 23 23 23 23 23 23 24 24 24 23 23 24 24 24 25 25 26 26 26 26 27 28 28 29
25 24 25 25 25 25 25 25 26 26 26 25 25 25 24 24 23 24 24 24 23 24 24 24 24 25 25 25 24 25 25 25 25 26 26 26 27 27 27 27 28 28 29
26 26 26 26 26 26 27 26 27 26 26 25 25 25 24 24 23 23 24 24 24 25 25 25 24 25 25 25 25 25 26 26 26 26 26 26 26 27 28 28 28 29 29
27 27 27 27 27 28 28 27 27 26 26 25 25 25 25 25 24 24 25 25 26 26 25 25 25 25 25 26 26 26 27 27 27 27 27 27 27 28 28 29 29 29 29
29 29 29 28 29 29 28 27 27 27 27 26 26 26 25 25 25 26 26 26 27 26 26 26 26 26 26 27 27 27 27 27 28 28 28 28 27 28 28 28 29 29 29
30 30 30 30 30 29 29 28 27 27 27 26 27 26 26 25 26 27 27 27 27 27 26 26 26 26 27 27 27 28 28 28 28 28 28 28 28 28 29 29 29 29 29
32 31 31 31 30 30 29 29 29 28 28 28 28 27 27 26 26 26 26 26 27 27 27 27 27 27 28 28 28 28 28 28 29 29 29 29 29 29 30 30 30 31 30
31 31 31 30 30 30 30 30 30 29 29 28 28 28 28 28 27 27 27 27 27 27 27 27 28 27 28 28 29 29 29 30 30 30 30 30 30 30 31 31 31 31 32
32 31 31 31 30 30 30 30 30 30 29 29 29 28 28 27 26 27 27 27 27 28 28 28 28 28 28 29 29 30 30 31 31 31 31 31 31 31 31 31 32 32 32
32 31 31 30 30 31 30 30 30 30 29 29 28 28 27 27 27 27 27 28 28 29 29 29 29 30 30 30 30 31 31 31 31 31 31 31 31 32 31 32 32 32 32
31 31 31 31 32 32 32 32 31 30 29 29 28 28 27 28 28 28 28 29 29 30 30 30 30 31 31 31 31 32 32 32 32 31 31 32 32 32 32 32 32 32 32
31 31 32 32 32 33 32 31 31 29 29 28 28 28 28 28 29 30 29 29 30 30 30 31 31 31 31 32 33 33 32 32 32 32 31 31 32 32 32 32 32 31 31
31 32 32 32 32 32 32 30 30 29 28 28 28 29 30 30 30 30 30 29 30 30 31 31 32 32 32 32 33 33 33 32 32 32 32 31 31 31 31 31 31 31 31
31 31 32 32 32 32 32 31 30 30 30 29 29 29 29 30 30 30 30 30 30 31 31 32 32 32 32 32 33 33 32 32 31 31 31 31 31 31 31 32 32 32 31
31 32 32 32 32 32 32 32 31 31 30 30 30 30 30 29 30 30 30 30 31 32 32 32 32 32 32 32 32 32 32 31 31 31 31 31 31 32 32 32 32 31 31
31 31 31 31 32 32 32 32 32 31 30 30 30 30 30 30 31 31 31 31 32 32 32 32 32 33 32 32 31 31 31 31 30 30 31 31 31 31 31 31 31 31 31
29 30 29 29 30 31 31 31 31 31 30 30 30 30 30 30 30 30 31 31 32 32 32 32 32 32 32 32 31 31 30 30 30 30 30 31 31 31 31 31 31 31 30
28 29 29 29 30 30 31 31 31 31 30 30 30 30 30 30 30 31 31 31 31 31 32 32 32 32 32 31 31 31 31 30 30 31 30 30 31 31 31 31 30 30 30

GEFSGL_500_meanwind_216.txt.gz
Wind_Speed
11 11 11 12 12 12 11 12 12 13 13 12 12 13 12 12 12 12 12 13 13 13 14 14 15 16 16 16 16 17 17 18 19 20 21 21 21 23 24 24 25 25 25
13 14 14 13 13 13 13 13 13 14 14 14 14 14 14 13 13 13 13 13 14 15 15 15 16 16 16 16 17 17 18 18 19 20 21 22 22 23 23 23 24 25 26
14 15 15 15 15 16 15 14 14 14 14 15 14 15 15 15 14 14 14 14 15 15 16 16 17 17 17 18 18 18 18 19 20 20 21 22 22 22 22 23 24 25 26
15 16 16 16 16 15 15 15 15 15 15 15 15 15 15 15 15 15 15 15 15 16 17 17 17 18 19 19 19 19 19 19 20 20 21 22 22 21 22 23 24 25 26
17 17 17 18 17 16 16 16 16 16 16 16 16 17 16 16 17 16 15 15 16 17 17 17 18 18 19 19 19 20 20 21 20 20 20 21 21 22 22 22 23 24 25
18 18 18 19 18 17 16 17 18 18 18 17 18 18 18 18 18 17 17 17 17 17 18 18 18 18 18 19 19 19 19 19 20 20 21 21 22 21 21 22 23 24 24
19 19 19 19 18 17 17 18 19 19 19 19 19 19 19 19 18 18 18 18 18 18 19 18 18 19 19 19 20 20 19 19 19 19 20 21 21 22 22 23 24 25 25
21 21 21 21 20 19 19 19 20 20 20 20 20 21 21 20 20 19 19 19 19 19 19 19 19 19 19 20 20 20 19 19 19 20 21 21 22 22 22 23 24 25 26
22 21 21 21 21 20 20 21 20 21 21 20 21 20 20 20 20 19 19 19 19 19 19 19 19 20 20 20 20 20 20 20 20 21 21 22 22 23 23 24 25 26 27
21 21 21 21 21 21 21 21 21 22 22 21 21 21 20 20 20 20 20 20 20 20 20 20 20 20 20 20 20 20 20 20 21 22 22 23 24 24 25 25 26 27 28
23 23 23 22 22 22 22 22 22 23 24 23 23 22 22 22 21 21 21 21 21 21 21 21 20 20 20 21 20 20 21 22 22 23 24 25 25 26 27 27 28 28 29
25 24 24 24 24 24 24 25 25 25 25 25 24 24 23 23 22 22 22 22 22 21 21 21 21 21 21 21 22 22 22 23 23 24 24 25 26 27 27 28 29 29 30
26 26 25 26 26 27 26 26 27 26 26 26 25 24 24 23 23 23 24 24 23 23 22 22 22 23 23 22 22 23 23 23 23 24 25 26 27 27 28 29 29 30 31
28 27 26 27 27 28 28 28 28 27 26 26 25 25 25 24 25 25 25 25 25 24 24 24 23 23 23 23 23 23 23 23 24 25 26 26 27 28 29 29 30 30 31
29 30 28 28 28 29 29 28 28 27 26 25 25 25 25 25 26 26 26 25 25 24 25 25 23 23 23 23 23 24 24 25 25 26 27 28 28 29 29 30 30 31 31
30 31 31 29 29 29 28 28 28 28 27 27 26 26 26 26 26 26 26 26 25 25 25 24 23 23 24 24 24 25 25 26 27 27 28 28 29 30 30 31 31 32 32
32 33 33 31 30 29 29 28 28 28 29 28 28 27 26 26 26 26 26 26 26 25 24 24 24 24 25 25 25 26 26 27 28 28 28 29 30 30 30 31 31 31 31
33 33 33 32 32 30 29 28 29 29 29 29 28 26 26 26 26 27 27 27 26 25 24 24 25 25 26 26 27 27 27 27 28 28 29 30 30 31 31 31 31 31 32
34 33 32 32 32 30 29 29 29 29 29 28 28 27 26 27 27 26 26 24 24 24 25 25 25 26 26 27 27 27 27 28 28 29 29 30 31 31 31 31 31 31 32
32 32 32 31 31 30 29 29 29 29 29 29 28 28 27 27 27 26 26 25 25 26 26 26 27 27 27 27 27 28 28 29 29 30 30 30 30 30 30 30 30 30 31
30 30 31 31 30 29 29 29 29 29 29 29 28 28 27 26 27 27 26 26 26 27 28 28 28 29 28 28 29 29 29 29 29 30 30 30 30 30 30 30 30 31 31
30 30 30 29 29 29 29 29 28 28 28 28 27 26 26 26 26 26 26 26 27 27 28 29 28 29 29 29 29 29 29 30 30 30 30 30 29 30 30 30 30 31 31
30 30 30 30 29 29 29 29 28 28 28 27 27 26 26 27 26 26 26 27 27 28 28 27 28 29 29 29 30 30 29 30 30 29 29 29 29 29 29 30 30 30 30
30 30 29 29 28 28 28 29 29 28 28 27 26 26 27 27 27 27 27 28 28 27 27 28 28 28 29 30 30 29 29 29 29 28 28 28 29 29 30 30 30 30 29
28 28 28 27 28 27 27 28 28 28 27 27 26 27 27 28 28 28 28 28 28 28 28 28 28 28 29 29 29 29 29 29 29 29 29 29 29 30 30 30 30 30 29
28 28 27 27 27 27 27 28 28 28 27 26 27 28 28 28 28 28 28 28 28 28 28 29 29 29 30 29 29 29 30 30 30 29 29 29 29 29 29 29 29 29 29

GEFSGL_500_meanwind_222.txt.gz
Wind_Speed
10 10 11 11 12 12 13 13 13 13 12 12 12 12 12 12 12 12 13 13 14 14 15 15 16 17 17 18 19 19 19 20 19 19 21 21 22 23 23 24 25 25 25
11 11 12 12 13 14 14 14 14 13 12 11 12 13 13 13 13 13 14 14 15 15 16 16 17 18 18 19 19 19 20 20 20 20 21 22 23 24 24 24 25 25 25
12 13 13 13 14 14 15 15 15 14 13 13 13 13 14 14 14 14 14 15 15 16 17 17 18 18 19 19 19 19 19 20 21 21 22 23 23 23 23 23 24 24 24
14 14 15 15 15 15 16 16 16 15 15 14 14 14 15 15 15 16 16 16 16 17 18 19 19 19 19 20 20 20 20 21 21 21 21 22 22 22 22 22 23 24 24
16 16 17 17 17 16 16 16 16 15 15 15 15 15 16 16 17 17 17 17 18 18 19 20 20 20 20 20 20 20 21 21 22 22 22 22 23 23 23 22 22 23 24
18 18 19 19 19 17 17 17 16 16 16 15 16 16 16 17 18 18 19 19 18 19 19 20 20 20 20 20 20 20 21 22 22 22 22 22 23 23 23 22 23 23 24
20 20 20 21 20 18 18 17 16 16 16 17 17 17 17 18 18 19 19 20 20 20 20 20 20 20 20 20 20 21 21 21 21 22 22 22 22 23 23 23 23 24 24
21 22 22 21 20 19 19 18 18 18 18 18 18 18 18 18 19 19 19 19 20 21 21 21 21 21 21 21 21 22 22 22 22 22 22 22 22 23 23 24 24 25 25
22 23 22 22 22 21 21 20 20 19 19 19 19 20 20 20 20 20 20 21 21 21 21 21 22 22 22 22 23 22 22 22 23 23 23 23 23 23 23 24 24 25 25
23 23 23 23 23 23 22 21 20 21 21 21 21 21 21 21 21 21 22 23 22 22 22 22 23 23 23 23 23 23 23 23 23 23 23 23 23 23 24 24 25 25 26
25 25 26 25 23 24 23 22 22 22 22 22 23 23 22 22 22 23 24 24 24 23 23 24 24 24 24 24 24 24 24 24 24 23 23 24 24 24 24 25 26 27 27
27 27 27 26 25 25 24 23 23 23 24 24 24 23 24 23 23 24 24 25 26 26 26 25 25 25 25 25 25 24 24 24 24 24 24 24 24 25 25 26 27 28 29
27 27 27 27 27 27 25 25 25 25 25 26 25 25 25 25 25 25 25 26 27 27 27 26 26 25 25 25 25 25 24 25 25 25 25 25 26 26 27 28 29 29 30
28 27 27 27 27 28 28 27 27 27 27 27 27 26 26 26 26 26 26 25 25 26 26 26 26 26 26 26 26 27 26 26 25 26 26 26 26 27 28 29 29 30 30
29 29 29 29 29 30 30 29 29 29 29 28 28 28 28 28 27 27 27 26 25 25 25 25 25 26 26 26 26 26 26 26 26 26 26 26 27 28 28 29 29 30 31
31 30 30 31 32 31 30 30 30 30 30 29 29 29 29 29 28 28 27 26 26 26 25 25 25 25 25 25 26 25 25 25 26 26 27 27 28 28 29 29 30 31 31
32 32 32 32 32 32 31 31 31 31 31 31 31 30 30 30 29 29 29 28 28 27 26 25 25 25 25 26 26 26 26 26 26 27 28 29 29 29 30 30 31 31 32
33 32 32 32 33 33 32 32 32 32 32 32 31 31 31 30 30 29 29 28 28 28 27 26 26 26 26 27 27 27 27 27 28 29 29 30 30 30 30 31 31 31 32
33 32 33 33 33 33 33 33 32 32 32 31 31 31 31 31 30 29 29 29 29 28 28 28 27 28 28 28 28 27 28 28 29 30 30 30 30 30 30 31 31 31 31
33 33 33 34 34 33 33 33 32 32 32 32 32 31 31 30 30 30 29 29 30 29 29 29 29 29 29 29 29 28 28 28 29 29 29 30 30 30 31 31 31 31 31
33 32 32 33 33 33 33 33 32 32 32 31 31 31 30 29 29 29 30 30 30 30 30 30 30 30 30 30 29 29 28 28 29 29 30 30 30 30 30 31 31 31 31
32 32 32 33 33 34 33 32 32 32 32 31 30 30 30 30 29 29 30 30 30 31 31 30 30 30 30 30 29 29 29 29 29 29 30 30 31 31 31 31 31 31 30
30 31 32 33 32 32 32 32 32 31 31 31 29 29 30 30 30 30 31 31 31 31 30 30 30 30 30 30 30 30 29 29 30 30 30 30 31 31 31 31 31 31 30
29 29 30 30 31 32 31 31 31 31 31 31 31 31 31 31 31 31 31 31 30 30 30 30 30 30 29 29 29 29 29 30 31 31 31 31 31 31 31 30 30 30 30
29 29 30 30 30 30 30 31 32 32 32 32 31 31 31 31 31 31 31 30 30 29 29 29 29 29 29 29 29 29 29 30 31 31 31 31 31 31 31 30 30 30 30
29 30 30 30 30 31 31 32 33 33 33 33 33 32 31 30 30 29 30 30 31 30 29 28 29 29 29 30 30 30 30 30 31 31 31 31 31 31 31 31 30 30 30

GEFSGL_500_meanwind_228.txt.gz
Wind_Speed
10 11 11 11 12 12 13 14 14 14 14 14 14 14 13 13 13 13 14 14 14 15 15 15 16 17 18 18 19 19 19 20 20 21 22 22 22 23 23 23 24 24 25
12 12 12 13 13 14 14 15 15 15 15 14 14 14 14 14 14 14 14 15 15 16 16 17 17 18 18 18 18 19 19 20 20 21 22 22 22 23 23 23 24 24 24
14 14 14 14 15 15 16 16 16 16 15 14 14 14 14 15 15 15 16 16 17 17 17 18 18 18 18 18 19 20 20 20 20 20 21 22 22 23 23 23 23 23 23
15 16 16 16 16 17 17 17 17 17 17 16 16 15 15 16 16 17 17 18 18 18 18 19 19 19 19 20 20 20 21 21 21 20 21 21 21 22 21 21 22 22 22
17 17 17 17 17 18 18 18 17 18 18 19 18 17 17 17 18 18 18 18 19 19 20 20 20 20 20 20 21 21 21 21 21 21 21 21 21 21 21 21 21 21 22
17 17 18 18 18 18 19 20 19 19 20 18 18 18 18 19 19 19 19 19 20 20 20 20 20 20 21 21 21 22 22 22 21 21 21 21 21 21 21 21 21 21 22
19 19 19 20 20 20 20 20 20 20 20 19 19 19 20 20 20 20 20 20 21 21 21 21 21 21 21 21 21 21 21 21 21 21 21 21 21 21 21 21 22 22 23
21 21 21 22 22 22 22 21 22 22 21 21 21 21 21 21 20 20 20 20 20 21 21 21 21 22 23 23 22 22 22 21 21 22 22 22 22 21 21 21 22 23 23
23 23 23 24 24 24 23 23 23 23 23 22 22 22 23 23 22 22 21 22 22 22 22 23 23 23 23 23 23 23 23 23 22 22 22 22 22 22 22 22 22 23 23
24 24 25 25 25 25 25 25 25 24 24 23 23 22 22 23 23 23 23 24 24 24 24 25 25 25 25 25 25 24 23 23 23 23 22 22 23 23 23 23 23 23 24
25 26 25 25 26 26 27 26 26 26 25 24 24 24 24 24 24 24 25 26 26 26 26 27 26 26 26 26 25 25 25 24 24 24 23 23 23 23 23 24 24 25 25
27 28 27 27 28 28 29 28 27 26 26 25 25 25 25 26 26 26 26 27 27 28 28 28 28 28 28 27 26 26 26 25 25 25 24 24 24 24 24 25 25 25 25
28 28 28 29 30 30 30 29 28 27 26 26 25 26 26 27 27 27 27 27 28 28 28 28 28 28 28 28 28 27 26 26 26 25 24 24 25 25 25 25 25 25 25
29 29 30 30 30 31 31 31 30 29 27 27 27 28 28 28 28 28 28 28 29 29 29 29 29 29 29 28 27 27 26 26 26 26 25 25 25 25 25 25 26 26 27
29 29 30 30 31 31 32 31 31 31 30 29 29 29 30 30 30 30 30 30 30 30 30 30 29 29 29 29 28 28 27 27 26 26 25 25 25 26 26 26 27 27 27
31 31 30 31 32 32 32 32 32 31 30 30 30 31 31 31 31 31 31 31 31 31 31 31 30 29 29 28 28 27 26 26 26 26 26 26 27 27 27 27 28 28 28
32 32 32 32 33 33 33 32 32 31 31 32 32 32 31 31 32 32 32 32 32 32 32 31 30 30 29 28 27 27 27 27 27 28 28 28 28 28 28 29 29 28 28
32 32 32 33 33 33 32 32 31 32 32 33 32 32 32 32 32 32 32 32 31 31 32 31 30 29 29 29 28 28 28 28 28 28 29 29 28 28 29 29 29 29 29
33 33 33 33 33 33 32 32 31 32 32 32 32 32 32 32 31 32 32 31 30 31 31 30 30 29 29 29 28 28 28 28 29 29 29 29 29 29 29 29 29 29 29
34 34 34 34 33 32 32 32 32 32 32 32 32 33 32 32 32 31 31 31 31 31 30 30 30 29 29 28 28 28 28 29 29 29 29 29 29 29 30 30 29 29 28
33 33 33 33 33 32 32 32 33 33 33 33 33 33 33 31 31 31 31 31 32 31 31 31 30 29 29 29 29 29 29 29 29 29 28 29 29 30 30 29 28 28 28
33 32 31 32 32 32 32 33 33 34 34 34 34 33 32 32 31 31 32 32 31 31 31 31 31 30 30 30 29 29 29 29 29 28 29 30 30 30 30 28 27 28 28
32 32 32 32 32 32 32 33 33 33 34 34 34 33 32 32 32 32 32 32 32 32 32 31 31 31 31 30 30 30 29 29 29 29 29 30 30 30 29 29 28 28 28
32 32 32 32 33 33 33 34 34 34 34 33 33 33 32 33 33 33 32 32 32 31 31 31 30 30 30 29 29 29 29 29 29 29 29 30 30 31 31 30 30 29 29
31 31 31 32 33 33 33 34 34 35 34 34 34 34 33 33 33 32 31 31 30 30 30 30 30 29 28 29 29 29 29 28 28 29 29 30 30 30 31 32 31 30 29
29 30 31 32 32 32 33 33 33 33 33 33 33 33 32 32 32 31 31 31 30 31 30 29 28 28 29 29 29 29 29 29 29 29 30 30 30 30 31 31 30 29 29